Weather History for Dothan, AL

Change the Weather History Date:

Sunday, May 10, 2009

  Actual Average Record
Temperature  
Mean Temperature 81 °F 73 °F  
Max Temperature 91 °F 85 °F 96 °F (1955)
Min Temperature 72 °F 61 °F 51 °F (1966)
Cooling Degree Days 16 8  
Month to date cooling degree days 70  
Year to date cooling degree days 191  
Growing Degree Days 31 (Base 50)    
Moisture  
Dew Point 68 °F    
Average Humidity 72    
Maximum Humidity 91    
Minimum Humidity 45    
Precipitation  
Precipitation 0.00 in 0.09 in 1.58 in (2006)
Month to date precipitation 0.95  
Year to date precipitation 19.75  
Sea Level Pressure  
Sea Level Pressure 30.10 in    
Wind  
Wind Speed 7 mph (WNW)    
Max Wind Speed 12 mph    
Max Gust Speed -    
Visibility 8 miles    
Events      
T = Trace of Precipitation, MM = Missing Value Source: NWS Daily Summary

Daily Weather History Graph

Daily Weather History Graph

Search for Another Location

Airport:

Trip Planner

Search our weather history database for the weather conditions in past years. The results will help you decide how hot, cold, wet, or windy it might be!

Date:

Astronomy

May. 10, 2009 Rise Set
Actual Time 5:49 AM CDT 7:27 PM CDT
Civil Twilight 5:22 AM CDT 7:53 PM CDT
Nautical Twilight 4:51 AM CDT 8:25 PM CDT
Astronomical Twilight 4:18 AM CDT 8:58 PM CDT
Moon 9:17 PM CDT (5/10) 6:29 AM CDT (5/10)
Length of Visible Light 14h 31m
Length of Day
13h 38m
Full, 98% of the Moon is Illuminated
May 10
Full
May 17
Last Quarter
May 24
New
May 30
First Quarter
Jun 7
Full

Hourly Weather History & Observations

Time (CDT) Temp. Heat Index Dew Point Humidity Pressure Visibility Wind Dir Wind Speed Gust Speed Precip Events Conditions
12:53 AM 75.0 °F - 69.1 °F 82% 30.10 in 10.0 mi WSW 6.9 mph - N/A   Clear
1:53 AM 73.9 °F - 69.1 °F 85% 30.09 in 10.0 mi West 4.6 mph - N/A   Clear
2:53 AM 73.0 °F - 68.0 °F 84% 30.04 in 10.0 mi SSW 4.6 mph - N/A   Clear
4:53 AM 72.0 °F - 69.1 °F 91% 30.06 in 8.0 mi West 8.1 mph - N/A   Clear
5:04 AM 73.4 °F - 69.8 °F 88% 30.08 in 8.0 mi West 5.8 mph - N/A   Scattered Clouds
5:12 AM 73.4 °F - 69.8 °F 88% 30.08 in 8.0 mi West 6.9 mph - N/A   Mostly Cloudy
5:28 AM 73.4 °F - 69.8 °F 88% 30.09 in 6.0 mi WSW 10.4 mph - N/A   Overcast
5:53 AM 73.0 °F - 69.1 °F 87% 30.08 in 5.0 mi West 11.5 mph - N/A   Overcast
6:53 AM 73.0 °F - 70.0 °F 90% 30.12 in 6.0 mi WNW 8.1 mph - N/A   Overcast
7:04 AM 73.4 °F - 69.8 °F 88% 30.13 in 7.0 mi WNW 5.8 mph - N/A   Mostly Cloudy
7:44 AM 75.2 °F - 69.8 °F 83% 30.14 in 9.0 mi WNW 6.9 mph - N/A   Overcast
7:53 AM 75.0 °F - 70.0 °F 84% 30.13 in 9.0 mi WNW 6.9 mph - N/A   Overcast
8:53 AM 75.9 °F - 70.0 °F 82% 30.14 in 6.0 mi NW 10.4 mph - N/A   Haze
9:49 AM 78.8 °F - 69.8 °F 74% 30.15 in 3.0 mi WNW 8.1 mph - N/A   Mostly Cloudy
9:53 AM 80.1 °F 83.2 °F 70.0 °F 71% 30.14 in 4.0 mi NW 11.5 mph - N/A   Haze
10:02 AM 80.6 °F 83.9 °F 69.8 °F 70% 30.16 in 7.0 mi NW 9.2 mph - N/A   Mostly Cloudy
10:53 AM 81.0 °F 84.4 °F 70.0 °F 69% 30.15 in 8.0 mi WNW 6.9 mph - N/A   Mostly Cloudy
11:00 AM 80.6 °F 83.9 °F 69.8 °F 70% 30.16 in 8.0 mi WNW 8.1 mph - N/A   Mostly Cloudy
11:28 AM 84.2 °F 88.4 °F 69.8 °F 62% 30.16 in 9.0 mi NW 8.1 mph - N/A   Mostly Cloudy
11:53 AM 86.0 °F 90.7 °F 70.0 °F 59% 30.14 in 10.0 mi West 8.1 mph - N/A   Partly Cloudy
12:53 PM 87.1 °F 91.3 °F 69.1 °F 55% 30.12 in 10.0 mi WNW 11.5 mph - N/A   Partly Cloudy
1:53 PM 88.0 °F 92.1 °F 69.1 °F 53% 30.10 in 10.0 mi West 10.4 mph - N/A   Partly Cloudy
2:53 PM 89.1 °F 92.9 °F 68.0 °F 50% 30.07 in 10.0 mi WNW 9.2 mph - N/A   Clear
3:53 PM 90.0 °F 92.4 °F 66.0 °F 45% 30.05 in 10.0 mi NNW 8.1 mph - N/A   Partly Cloudy
4:53 PM 89.1 °F 91.0 °F 64.9 °F 45% 30.04 in 10.0 mi WNW 4.6 mph - N/A   Clear
5:53 PM 89.1 °F 92.1 °F 66.9 °F 48% 30.04 in 10.0 mi North 8.1 mph - N/A   Clear
6:53 PM 87.1 °F 89.9 °F 66.9 °F 51% 30.02 in 10.0 mi NE 3.5 mph - N/A   Clear
7:53 PM 80.1 °F 82.3 °F 66.9 °F 64% 30.05 in 10.0 mi NNE 10.4 mph - N/A   Clear
8:53 PM 77.0 °F - 64.0 °F 64% 30.06 in 10.0 mi NE 10.4 mph - N/A   Clear
9:53 PM 75.0 °F - 64.0 °F 69% 30.07 in 10.0 mi NE 5.8 mph - N/A   Clear
10:53 PM 73.0 °F - 64.0 °F 73% 30.09 in 10.0 mi Calm Calm - N/A   Clear
11:53 PM 72.0 °F - 64.9 °F 78% 30.10 in 10.0 mi South 3.5 mph - N/A   Clear